| time (UTC) | temp F | wind direction | speed MPH | gust MPH | rain 1hr in | rain 24hr in | rain mn in | humidity % | barometer mb |
| 20260504081552 | 42 | 136 | 1.0 | 6.0 | 0.00 | 0.00 | 0.00 | 81 | 1009.9 |
| 20260504044528 | 42 | 134 | 2.0 | 12.0 | 0.00 | 0.00 | 0.00 | 73 | 1010.5 |
| 20260504043028 | 42 | 239 | 4.0 | 15.0 | 0.00 | 0.00 | 0.00 | 71 | 1010.5 |
| 20260504041523 | 42 | 195 | 3.0 | 11.0 | 0.00 | 0.00 | 0.00 | 69 | 1010.6 |
| 20260504040020 | 42 | 141 | 2.0 | 9.0 | 0.00 | 0.00 | 0.00 | 64 | 1010.6 |
| 20260504034519 | 42 | 195 | 0.0 | 10.0 | 0.00 | 0.00 | 0.00 | 60 | 1010.6 |
| 20260504033019 | 42 | 205 | 3.0 | 13.0 | 0.00 | 0.00 | 0.00 | 56 | 1010.7 |
| 20260504031518 | 41 | 84 | 2.0 | 7.0 | 0.00 | 0.00 | 0.00 | 53 | 1010.5 |
| 20260504030018 | 41 | 137 | 2.0 | 7.0 | 0.00 | 0.00 | 0.00 | 53 | 1010.7 |
| 20260504024516 | 41 | 157 | 0.0 | 4.0 | 0.00 | 0.00 | 0.00 | 52 | 1010.7 |
| 20260504023016 | 41 | 146 | 0.0 | 4.0 | 0.00 | 0.00 | 0.00 | 51 | 1010.8 |
| 20260504021515 | 41 | 242 | 1.0 | 5.0 | 0.00 | 0.00 | 0.00 | 50 | 1010.8 |
| 20260504020014 | 41 | 250 | 0.0 | 5.0 | 0.00 | 0.00 | 0.00 | 50 | 1010.8 |
| 20260504014514 | 41 | 269 | 0.0 | 6.0 | 0.00 | 0.00 | 0.00 | 50 | 1010.7 |
| 20260504013019 | 40 | 274 | 0.0 | 2.0 | 0.00 | 0.00 | 0.00 | 49 | 1010.6 |
| 20260504011514 | 41 | 136 | 0.0 | 4.0 | 0.00 | 0.00 | 0.00 | 50 | 1010.4 |
| 20260504010013 | 40 | 56 | 0.0 | 2.0 | 0.00 | 0.00 | 0.00 | 51 | 1010.3 |
| 20260504004531 | 40 | 286 | 0.0 | 2.0 | 0.00 | 0.00 | 0.00 | 52 | 1010.0 |
| 20260504003011 | 41 | 259 | 0.0 | 2.0 | 0.00 | 0.00 | 0.00 | 51 | 1009.9 |
| 20260504001526 | 41 | 271 | 0.0 | 1.0 | 0.00 | 0.00 | 0.00 | 51 | 1009.6 |
| 20260504000009 | 41 | 129 | 0.0 | 2.0 | 0.00 | 0.00 | 0.00 | 51 | 1009.4 |
| 20260503234516 | 42 | 249 | 0.0 | 1.0 | 0.00 | 0.00 | 0.00 | 49 | 1009.3 |
| 20260503233009 | 43 | 274 | 0.0 | 2.0 | 0.00 | 0.00 | 0.00 | 49 | 1009.2 |
| 20260503231508 | 43 | 236 | 0.0 | 6.0 | 0.00 | 0.00 | 0.00 | 47 | 1009.1 |
| 20260503230010 | 44 | 39 | 0.0 | 7.0 | 0.00 | 0.00 | 0.00 | 48 | 1009.1 |
| 20260503224507 | 44 | 222 | 0.0 | 4.0 | 0.00 | 0.00 | 0.00 | 48 | 1009.0 |
| 20260503223009 | 44 | 239 | 0.0 | 8.0 | 0.00 | 0.00 | 0.00 | 48 | 1009.0 |
| 20260503221505 | 45 | 210 | 2.0 | 7.0 | 0.00 | 0.00 | 0.00 | 48 | 1008.9 |
| 20260503220018 | 43 | 240 | 2.0 | 8.0 | 0.00 | 0.00 | 0.00 | 49 | 1009.0 |
| 20260503214509 | 44 | 269 | 3.0 | 10.0 | 0.00 | 0.00 | 0.00 | 48 | 1008.9 |
| 20260503213003 | 44 | 207 | 1.0 | 10.0 | 0.00 | 0.00 | 0.00 | 50 | 1008.8 |
| 20260503211603 | 45 | 108 | 2.0 | 7.0 | 0.00 | 0.00 | 0.00 | 48 | 1008.8 |
| 20260503210059 | 44 | 226 | 0.0 | 5.0 | 0.00 | 0.00 | 0.00 | 53 | 1008.7 |
| 20260503204558 | 43 | 113 | 0.0 | 3.0 | 0.00 | 0.00 | 0.00 | 53 | 1008.8 |
| 20260503203058 | 42 | 120 | 1.0 | 7.0 | 0.00 | 0.00 | 0.00 | 52 | 1008.7 |
| 20260503201557 | 43 | 224 | 3.0 | 7.0 | 0.00 | 0.00 | 0.00 | 50 | 1008.8 |
| 20260503200056 | 43 | 208 | 2.0 | 8.0 | 0.00 | 0.00 | 0.00 | 50 | 1008.7 |
| 20260503194614 | 42 | 148 | 1.0 | 10.0 | 0.00 | 0.00 | 0.00 | 54 | 1009.0 |
| 20260503193053 | 43 | 283 | 2.0 | 10.0 | 0.00 | 0.00 | 0.00 | 51 | 1009.0 |
| 20260503191557 | 43 | 243 | 1.0 | 7.0 | 0.00 | 0.00 | 0.00 | 53 | 1009.0 |
| 20260503190150 | 42 | 288 | 3.0 | 9.0 | 0.00 | 0.00 | 0.00 | 52 | 1009.2 |
| 20260503184549 | 42 | 260 | 0.0 | 8.0 | 0.00 | 0.00 | 0.00 | 53 | 1009.1 |
| 20260503183055 | 42 | 215 | 4.0 | 10.0 | 0.00 | 0.00 | 0.00 | 55 | 1009.0 |
| 20260503181559 | 40 | 240 | 2.0 | 9.0 | 0.00 | 0.00 | 0.00 | 55 | 1009.1 |
| 20260503180052 | 41 | 252 | 1.0 | 11.0 | 0.00 | 0.00 | 0.00 | 54 | 1009.1 |
| 20260503174553 | 42 | 259 | 2.0 | 11.0 | 0.00 | 0.00 | 0.00 | 56 | 1009.1 |
| 20260503173047 | 42 | 166 | 2.0 | 10.0 | 0.00 | 0.00 | 0.00 | 54 | 1008.9 |
| 20260503171547 | 41 | 245 | 2.0 | 13.0 | 0.00 | 0.00 | 0.00 | 56 | 1008.9 |